Home > Weather > Tuzla > Past weeks

Flag for Bosnia-Herzegovina Past Weather in Tuzla, Bosnia-Herzegovina — Yesterday and Last 2 Weeks

Now
63 °F

Fog.


Feels Like: 63 °F
Forecast: 67 / 83 °F
Wind: 2 mph from North

Location: Tuzla

Current Time: Jun 26, 2016 at 6:47:35 AM

Latest Report: Jun 26, 2016 at 6:00 AM


Visibility: 1 mi

Pressure: 29.92 "Hg

Humidity: 100%

Dew Point: 63 °F

Location of TuzlaLocation

Past Weather in Tuzla — Graph

°F

Tuzla Temperature Yesterday

Maximum temperature yesterday: 90 °F (at 1:00 PM)
Minimum temperature yesterday: 63 °F (at 4:00 PM)
Average temperature yesterday: 75 °F

High & Low Weather Summary for the Past Weeks

 TemperatureHumidityPressure
High91 °F (Jun 17, 10:30 AM)100% (Jun 11, 6:00 AM)30.24 "Hg (Jun 11, 6:00 AM)
Low55 °F (Jun 14, 6:00 AM)27% (Jun 16, 11:30 PM)29.53 "Hg (Jun 14, 4:00 PM)
Average74 °F73%29.90 "Hg
* Reported Jun 11 6:00 AM — Jun 25 11:30 PM, Tuzla, Weather by CustomWeather, © 2016

Note: Actual official high and low records may vary slightly from our data, if they occured in-between our weather recording intervals... More about our weather records

Advertising

Tuzla Weather History for the Previous 24 Hours

Scroll right to see more
 ConditionsComfort  
Time TempWeatherWind HumidityBarometerVisibility
11:30 PM
Sat, Jun 25
64 °FPassing clouds.2 mph100%29.89 "HgN/A
11:00 PM66 °FPassing clouds.2 mph100%29.92 "HgN/A
10:30 PM66 °FPassing clouds.2 mph100%29.92 "HgN/A
10:00 PM66 °FPassing clouds.3 mph100%29.92 "HgN/A
9:30 PM66 °FPassing clouds.5 mph100%29.89 "HgN/A
9:00 PM68 °FPassing clouds.3 mph100%29.89 "HgN/A
8:30 PM70 °FScattered clouds.3 mph94%29.89 "HgN/A
8:00 PM68 °FScattered clouds.2 mph100%29.86 "HgN/A
7:30 PM72 °FScattered clouds.2 mph94%29.89 "HgN/A
7:00 PM73 °FScattered clouds.5 mph83%29.86 "HgN/A
6:30 PM72 °FScattered clouds.5 mph88%29.86 "HgN/A
6:00 PM70 °FPartly sunny.7 mph94%29.86 "HgN/A
5:30 PM68 °FPartly sunny.2 mph100%29.89 "HgN/A
5:00 PM68 °FThundershowers. Partly sunny.8 mph88%29.89 "HgN/A
4:30 PM66 °FThunderstorms. Partly sunny.14 mph100%29.89 "HgN/A
4:00 PM63 °FThunderstorms. Broken clouds.23 mph100%29.92 "HgN/A
3:00 PM88 °FThunderstorms. Partly sunny.7 mph55%29.86 "HgN/A
2:30 PM90 °FThunderstorms. Scattered clouds.10 mph55%29.86 "HgN/A
2:00 PM90 °FThunderstorms. Scattered clouds.13 mph52%29.86 "HgN/A
1:30 PM90 °FThundershowers. Passing clouds.14 mph52%29.89 "HgN/A
1:00 PM90 °FPassing clouds.15 mph52%29.89 "HgN/A
12:30 PM88 °FPassing clouds.10 mph55%29.89 "HgN/A
12:00 PM88 °FPassing clouds.12 mph55%29.89 "HgN/A
11:30 AM86 °FPassing clouds.13 mph59%29.89 "HgN/A
11:00 AM86 °FPassing clouds.12 mph55%29.92 "HgN/A
10:30 AM84 °FPassing clouds.12 mph58%29.92 "HgN/A
10:00 AM84 °FPassing clouds.8 mph58%29.92 "HgN/A
9:00 AM81 °FPassing clouds.7 mph66%29.92 "HgN/A
8:00 AM75 °FPassing clouds.6 mph78%29.92 "HgN/A
7:30 AM75 °FPassing clouds.5 mph74%29.92 "HgN/A
7:00 AM72 °FSunny.1 mph88%29.92 "Hg10 mi
6:30 AM70 °FSunny.1 mph88%29.92 "Hg10 mi
6:00 AM68 °FClear.No wind88%29.92 "Hg10 mi
Weather by CustomWeather, © 2016

See weather overviewHow to use our weather pages